www.pogodaiklimat.ru

Погода и климат >> Архив погоды >> Южная Африка >> Эйтенхахе


ПОГОДА в Эйтенхахе

  • Прогноз погоды в Эйтенхахе
  • Монитор погоды в Эйтенхахе

АРХИВ ПОГОДЫ в Эйтенхахе

Время (UTC), дата Ветер
(напр.,м/с)
 
Видим.   Явления Облачность Т
(С)
Тd
(С)
f
(%)
Тe
(С)
Тes
(С)
Комфортность P
(гПа)
Po
(гПа)
Тmin
(С)
Tmax
(С)
R
(мм)
R24
(мм)
S
(см)
09 11.07 СЗ 7 н/о н/о +27.4 +1.2 18 +25 +25 комфорт 996.1 +4.8 +27.5
12 11.07 СЗ 4 н/о н/о +31.4 0.0 13 +28 +28 жарко 993.6 +4.8 +31.4
15 11.07 ЮЗ 3 н/о н/о +23.9 +6.8 33 +24 +24 комфорт 995.4 +23.9 +32.1
18 11.07 ЮЗ 5 н/о н/о +15.4 +10.2 71 +14 +14 998.3 +15.4 +32.1
21 11.07 З 6 н/о н/о +14.1 +10.7 80 +12 +12 1001.0 +13.7 +32.1
00 12.07 З 6 н/о н/о +14.6 +9.6 72 +13 +13 1002.3 +13.7 +32.1
03 12.07 З 6 н/о н/о +15.1 +8.8 66 +14 +14 1003.4 +13.7 +32.1
06 12.07 З 4 н/о н/о +14.0 +9.0 72 +13 +13 1006.2 +13.0
09 12.07 З 5 н/о н/о +17.8 +11.8 68 +17 +17 1008.0 +13.0 +17.8
12 12.07 ЮЗ 3 н/о н/о +18.7 +11.6 63 +20 +20 1006.5 +13.0 +18.9
15 12.07 В 2 н/о н/о +15.5 +12.4 82 +16 +16 1006.8 +15.5 +18.9
18 12.07 СВ 2 н/о н/о +14.5 +11.8 84 +14 +14 1006.6 +14.5 +18.9
21 12.07 В 2 н/о н/о +14.1 +11.2 83 +14 +14 1006.0 +14.1 +18.9
00 13.07 В 3 н/о н/о +13.9 +11.4 85 +13 +13 1004.1 +13.7 +18.9
03 13.07 штиль 0 н/о н/о +13.5 +11.4 87 +13 +13 1002.6 +13.5 +18.9
06 13.07 С 1 н/о н/о +9.4 +8.0 91 +9 +9 1003.3 +9.4
09 13.07 ЮВ 1 н/о н/о +18.6 +11.2 62 +20 +20 1003.8 +9.3 +18.7
12 13.07 З 2 н/о н/о +21.9 +10.8 49 +24 +24 комфорт 1001.7 +9.3 +22.0
15 13.07 ЮЗ 3 н/о н/о +18.9 +12.9 68 +20 +20 1002.5 +18.9 +22.1
18 13.07 С 2 н/о н/о +11.6 +9.8 89 +11 +11 1003.7 +11.6 +22.1
21 13.07 СВ 1 н/о н/о +10.6 +9.3 92 +10 +10 1002.7 +10.4 +22.1
00 14.07 штиль 0 н/о н/о +7.4 +6.3 93 +6 +6 1001.0 +7.4 +22.1
03 14.07 штиль 0 н/о н/о +6.9 +6.1 95 +6 +6 999.7 +6.4 +22.1
06 14.07 СЗ 2 н/о н/о +5.8 +5.2 96 +4 +4 998.6 +5.1
09 14.07 ЮВ 1 н/о н/о +22.4 +7.5 38 +23 +23 комфорт 998.6 +5.1 +22.4
12 14.07 Ю 3 н/о н/о +28.9 +6.6 24 +28 +28 жарко 996.3 +5.1 +29.2
15 14.07 ЮЗ 3 н/о н/о +20.6 +6.6 40 +22 +22 комфорт 997.8 +20.6 +29.2
18 14.07 З 3 н/о н/о +14.0 +10.6 80 +13 +13 1000.1 +14.0 +29.2
21 14.07 СВ 1 н/о н/о +9.4 +7.5 88 +9 +9 1001.4 +9.3 +29.2
00 15.07 С 2 н/о н/о +9.0 +7.6 91 +8 +8 1001.7 +9.0 +29.2
03 15.07 С 2 н/о н/о +7.7 +6.6 93 +6 +6 1001.6 +7.2 +29.2
06 15.07 СВ 1 н/о н/о +6.3 +5.4 94 +5 +5 1003.7 +6.3
09 15.07 З 1 н/о н/о +16.0 +11.6 75 +17 +17 1004.3 +6.3 +16.0
12 15.07 ЮЗ 2 н/о н/о +19.0 +10.4 57 +21 +21 комфорт 1002.8 +6.3 +19.0
15 15.07 ЮВ 3 н/о н/о +17.0 +11.7 71 +17 +17 1003.3 +17.0 +19.6
18 15.07 С 1 н/о н/о +13.9 +10.7 81 +14 +14 1004.8 +13.9 +19.6
21 15.07 С 1 н/о н/о +9.6 +7.8 89 +9 +9 1005.0 +9.6 +19.6
00 16.07 С 1 н/о н/о +7.7 +6.6 93 +7 +7 1004.3 +7.7 +19.6
03 16.07 штиль 0 н/о н/о +6.5 +5.6 94 +5 +5 1003.0 +6.0 +19.6
06 16.07 С 3 н/о н/о +10.1 +9.3 95 +8 +8 1002.0 +6.0
09 16.07 ЮЗ 2 н/о н/о +15.5 +11.1 75 +15 +15 1000.7 +6.0 +15.5
12 16.07 С 5 н/о н/о +28.5 +2.2 18 +26 +26 жарко 997.1 +6.0 +28.8
15 16.07 З 2 н/о н/о +27.0 +3.7 22 +26 +26 жарко 997.1 +27.0 +29.4
18 16.07 С 2 н/о н/о +13.6 +8.0 69 +13 +13 998.9 +13.6 +29.4
21 16.07 С 2 н/о н/о +9.7 +6.0 78 +9 +9 999.5 +9.2 +29.4
00 17.07 С 2 н/о н/о +12.6 +5.8 63 +12 +12 999.2 +7.8 +29.4
03 17.07 СВ 1 н/о н/о +6.8 +3.0 77 +6 +6 997.2 +6.8 +29.4
06 17.07 З 1 н/о н/о +9.4 +2.9 64 +9 +9 997.1 +6.8
09 17.07 ЮЗ 2 н/о н/о +24.8 +2.5 23 +24 +24 комфорт 998.6 +6.8 +24.8
12 17.07 СЗ 5 н/о н/о +28.1 -6.0 10 +25 +25 комфорт 996.6 +6.8 +29.2
15 17.07 ЮЗ 3 н/о н/о +19.9 +7.4 44 +21 +21 комфорт 997.5 +19.9 +29.2
18 17.07 С 2 н/о н/о +10.5 +4.4 66 +10 +10 999.2 +10.5 +29.2
21 17.07 СВ 2 н/о н/о +9.9 +5.1 72 +9 +9 999.6 +9.3 +29.2
00 18.07 С 2 н/о н/о +7.3 +4.2 81 +6 +6 998.7 +7.2 +29.2
03 18.07 штиль 0 н/о н/о +5.7 +3.0 83 +5 +5 997.2 +5.6 +29.2
06 18.07 С 2 н/о н/о +5.9 +2.5 79 +4 +4 997.8 +4.9

 

Местоположение метеостанции Эйтенхахе (Южная Африка): широта -33.71 долгота 25.44 высота над уровнем моря 157 м.

В архиве по умолчанию представлена погода в Эйтенхахе за последнюю неделю. Архивные данные за месяц целиком и за предыдущие месяцы, начиная с января 2011 года, Вы можете получить, выбрав интересующий диапазон дат из раскрывающегося списка и нажав кнопку "Ввод!".


*Определитесь, кто Вы:
робот инопланетянин человек

Внимание! Время в таблицах - всемирное. Для получения местного времени необходимо прибавить поправку, которая равна 2 ч.

Смотрите также архив погоды в соседних городах и на ближайших метеорологических станциях:

Погода в Нгкура (Южная Африка) (24 км)
Погода в Порт-Элизабет (Южная Африка) (34 км)
Погода в Парке Addo Elephant (Южная Африка) (42 км)
Погода в Патенсие (Южная Африка) (58 км)
Погода в Сомерсет-Ист (Южная Африка) (73 км)
Погода на Мысе St. Francis (Южная Африка) (77 км)
Погода на Острове Бёрд (Южная Африка) (80 км)
Погода в Грейамстауне (Южная Африка) (109 км)
Погода в Порт-Альфред (Южная Африка) (134 км)
Погода в Парке Tsitsikamma (Южная Африка) (146 км)

Пояснения к столбцам:

Ветер - указаны скорость ветра в м/с - средняя за 10 мин, порывы в срок и между сроками (в фигурных скобках) и направление, откуда дует ветер: С - северный, СВ - северо-восточный, В - восточный, ЮВ - юго-восточный, Ю - южный, ЮЗ - юго-западный, З - западный, СЗ - северо-западный.
Видимость - горизонтальная дальность видимости в метрах или километрах. При видимости от 1 до 10 км при отсутствии осадков обычно наблюдается дымка, при ухудшении видимости до 1 км и менее - туман. В сухую погоду видимость может ухудшаться дымом, пылью или мглою.
Явления - указаны атмосферные явления, наблюдавшиеся в срок или в последний час перед сроком; фигурными скобками обозначены явления, наблюдавшиеся между сроками (за 1-3 часа до срока); квадратными скобками обозначены град или гололедные отложения с указанием их диаметра в мм.
Облачность - указаны через наклонную черту общая и нижняя облачность в баллах и высота нижней границы облаков в метрах; квадратными скобками обозначены формы облаков: Ci - перистые, Cs - перисто-слоистые, Cc - перисто-кучевые, Ac - высококучевые, As - высокослоистые, Sc - слоисто-кучевые, Ns - слоисто-дождевые, Cu - кучевые, Cb - кучево-дождевые. Подробнее классификацию облаков см. в Атласе облаков (PDF).
T - Температура воздуха - температура, измеренная на высоте 2 м над землей.
Td - Температура точки росы - температура, при понижении до которой содержащийся в воздухе водяной пар достигнет насыщения.
f - Относительная влажность воздуха - влажноcть воздуха, измеренная на высоте 2 м над землей.
Te - Эффективная температура - температура, которую ощущает одетый по сезону человек в тени. Характеристика душности погоды. При расчете учитывается влияние влажности воздуха и скорости ветра на теплоощущения человека.
Tes - Эффективная температура на солнце - температура, которую ощущает человек, с поправкой на солнечный нагрев. Характеристика знойности погоды. Зависит от высоты солнца над горизонтом, облачности и скорости ветра. Ночью, в пасмурную погоду, а также при ветре 12 м/с и более поправка равна нулю.
P - Атмосферное давление - приведенное к уровню моря атмосферное давление.
Po - Атмосферное давление - измеренное на уровне метеостанции атмосферное давление.
Tmin - Минимальная температура - минимум температуры воздуха на высоте 2 м над землей.
Tmax - Максимальная температура - максимум температуры воздуха на высоте 2 м над землей.
R - Количество осадков - Количество выпавших осадков за период времени, мм. При наведении курсора мыши на число - период времени, за который выпало указанное количество осадков.
R24 - Количество осадков - Количество выпавших осадков за 24 часа, мм.
S - Снежный покров - Высота снежного покрова, см. При наведении курсора мыши на число - состояние снежного покрова и степень покрытия местности в баллах.